Find Starlink 3099

NORAD ID: 49446 Int'l Des: 2021-104 Owner: SPXS Country: US Constellation: starlink operational
LEOCIRCULAR

Current View

Loading 3D Globe...

About Starlink 3099

Description loading...

Upcoming Passes

Passes for default location (London). Set your location on the main map for personalized predictions.

Altitude History

Loading altitude history...

Two-Line Element Set

1 49446U 21104AQ 26146.50904929 .00000739 00000-0 64518-4 0 9999
2 49446 53.2064 219.7742 0000918 85.4369 274.6728 15.08837220250665
Epoch: May 26, 2026 • Age: 8 hours

Current Status

Altitude 552.0 km
Velocity 7.59 km/s
Sub-Earth Point -36.62°S, 1.05°E
Launch Date Nov 13, 2021
Age 4.5 years
Type internet

Technical Details

Classification Payload
Mass 290.00 kg
Dry Mass 270.00 kg
Total Mass 290.00 kg
Length 0.20 m
Diameter 2.80 m
Span 9.00 m
Shape Box + pan
Manufacturer SPXS
Bus Type Starlink
Phase Status In Orbit
Owner/State SPXS/US

Most Searched